Regional Weather Roundup
Issued by NWS

Home | Current Version | Previous Version | Graphics & Text | Print | Product List | Glossary On
Versions: 1 2 3 4 5 6 7 8 9 10 11 12 13 14 15 16 17 18 19 20 21 22 23 24 25 26 27 28 29 30 31 32 33 34 35 36 37 38 39 40 41 42 43 44 45 46 47 48 49 50
000
ASUS43 KLOT 281908
RWRIL

ILLINOIS REGIONAL WEATHER ROUNDUP
NATIONAL WEATHER SERVICE CHICAGO/ROMEOVILLE IL
200 PM CDT WED SEP 28 2016

NOTE: "FAIR" INDICATES FEW OR NO CLOUDS BELOW 12,000 FEET WITH NO
SIGNIFICANT WEATHER AND/OR OBSTRUCTIONS TO VISIBILITY.

* THESE STATIONS ARE NOT UNDER NWS QUALITY CONTROL. THEY ALSO MAY NOT
  REPORT WEATHER SUCH AS PRECIPITATION OR FOG.

ILZ001-002-007-009-015-016-024-282000-
NORTHWEST ILLINOIS

CITY           SKY/WX    TMP DP  RH WIND       PRES   REMARKS
MOLINE         CLOUDY    61  48  62 N7        30.02R
STERLING*      CLOUDY    63  50  62 N14       29.99S
SAVANNA*       CLOUDY    60  50  69 N10       30.01R
$$

ILZ003-004-008-010-011-017-018-282000-
NORTH CENTRAL ILLINOIS

CITY           SKY/WX    TMP DP  RH WIND       PRES   REMARKS
ROCKFORD       CLOUDY    60  48  64 N14       30.00S
FREEPORT*      CLOUDY    59  47  65 N14       30.01S
ROCHELLE*      CLOUDY    58  48  67 N15G21    29.98S
DE KALB*       CLOUDY    59  48  67 N10       29.97R
$$

ILZ005-006-012>014-019>023-282000-
NORTHEAST ILLINOIS

CITY           SKY/WX    TMP DP  RH WIND       PRES   REMARKS
CHICAGO-OHARE  PTSUNNY   58  49  72 N15G22    29.93S
CHICAGO-MIDWAY LGT RAIN  58  49  72 N14G26    29.93R
AURORA         PTSUNNY   61  47  59 N14       29.95S
LANSING*       HVY RAIN  55  54  95 N10G17    29.91R
JOLIET*        PTSUNNY   63  48  59 N10G16    29.93S
WAUKEGAN       PTSUNNY   59  49  69 VRB6      29.94F
DUPAGE AIRPORT CLOUDY    60  47  61 N15       29.94S
KANKAKEE*      CLOUDY    59  47  63 N8        29.92R
WHEELING       LGT RAIN  56  50  80 N9        29.96R
MORRIS*        PTSUNNY   62  45  54 N6        29.93R
ROMEOVILLE*    CLOUDY    60  50  68 N14       29.92S
NORTHERLY ISL    N/A     55  50  83 NW20        N/A
$$

LMZ740>746-282000-
SOUTHERN LAKE MICHIGAN

STATION/POSITION SKY/WX   TEMP    WIND        PRES    VSBY  WAVE
                          AIR SEA DIR/SP/G                  HT/PER
                          (F)     (DEG/KT/KT) (MB)    (MI)  (FT/S)
SOUTHERN BUOY              61 69   50/ 19/ 23 1012.9R         2/ 3
WILMETTE HARBOR            52 58  310/ 10/ 17   N/A           4/ 4
HARRISON CRIB              55     330/ 26/ 28   N/A
BURNHAM HARBOR             55     330/ 10/ 21   N/A
CALUMET HARBOR             54     320/  7/ 17 1012.5R
BURNS HARBOR               59      50/ 14/ 18 1012.5R
MICHIGAN CITY              57      30/ 14/ 17   N/A
MICHIGAN CITY 6N           58 66   50/ 14/ 17   N/A           4/ 4
ST. JOSEPH                 57 65   50/  8/ 12 1012.6          3/ 4
$$

ILZ025>027-034>036-040-047-049-050-058-095>099-282000-
WEST-CENTRAL ILLINOIS

CITY           SKY/WX    TMP DP  RH WIND       PRES   REMARKS
QUINCY         CLOUDY    60  46  59 N17G24    30.04R
GALESBURG*     CLOUDY    60  49  66 NW12G18   30.01S
MACOMB*        CLOUDY    59  47  63 N16       30.05R
JACKSONVILLE*  CLOUDY    61  45  56 NW15G23   30.01R
PITTSFIELD*    MOSUNNY   63  46  54 NW15G22   30.03S
$$

ILZ028>032-037-038-041>044-048-051>054-059>061-282000-
CENTRAL ILLINOIS

CITY           SKY/WX    TMP DP  RH WIND       PRES   REMARKS
PONTIAC        CLOUDY    58  54  88 N10       29.95S
BLOOMINGTON    LGT RAIN  58  48  69 NW21      29.96R
DECATUR        CLOUDY    60  45  57 NW16      29.97R
PEORIA         CLOUDY    59  49  69 NW7       29.99S
LACON*         CLOUDY    59  46  61 N10       29.97S
LINCOLN*       CLOUDY    60  47  62 N7        29.98R
SPRINGFIELD    CLOUDY    62  45  53 N14G25    29.99R
TAYLORVILLE    CLOUDY    60  44  55 N18G24    29.98R
$$

ILZ033-039-045-046-055>057-062-063-282000-
EAST-CENTRAL ILLINOIS

CITY           SKY/WX    TMP DP  RH WIND       PRES   REMARKS
CHAMPAIGN      PTSUNNY   61  45  55 NW15G25   29.93R
RANTOUL*       CLOUDY    62  47  58 NW14      29.92S
MATTOON        LGT RAIN  62  44  51 N23G29    29.92R
PARIS*         CLOUDY    64  47  54 NW6       29.90R
$$

ILZ079-100>102-282000-
SOUTHWEST ILLINOIS

CITY           SKY/WX    TMP DP  RH WIND       PRES   REMARKS
BELLEVILLE     MOSUNNY   65  47  51 N14       29.96R
CAHOKIA*       MOSUNNY   69  44  40 N17G28    29.98R
SPARTA*        PTSUNNY   65  48  53 NW12G17   29.97R
$$

ILZ064>066-069>071-074>076-080>082-084>086-088>090-092>094-282000-
SOUTH-CENTRAL ILLINOIS

CITY           SKY/WX    TMP DP  RH WIND       PRES   REMARKS
CARBONDALE     MOSUNNY   68  47  46 NW14G26   29.93R
CAIRO*         SUNNY     73  54  50 NW8       29.90S
EFFINGHAM*     CLOUDY    63  46  54 NW18G25   29.95R
MARION           N/A     70  48  46 NW17      29.93R
MT. VERNON     MOSUNNY   66  45  45 W7        29.94R
CENTRALIA*     PTSUNNY   66  48  50 NW13G21   29.95R
SALEM*         PTSUNNY   66  44  44 N17G24    29.95R
METROPOLIS*    PTSUNNY   73  54  52 NW9       29.90S
$$

ILZ067-068-072-073-078-083-087-091-282000-
SOUTHEAST ILLINOIS

CITY           SKY/WX    TMP DP  RH WIND       PRES   REMARKS
LAWRENCEVILLE  PTSUNNY   71  48  43 N15       29.87R
FLORA*         PTSUNNY   68  47  46 NW13G22   29.92R
FAIRFIELD*     MOSUNNY   67  47  48 NW8       29.90R
HARRISBURG*    SUNNY     70  48  44 N15G21    29.91R
ROBINSON*      SUNNY     67  48  49 NW14      29.88S
CARMI*         SUNNY     71  50  48 NW10      29.89R
$$

ABBREVIATIONS USED IN REMARKS
   TC - TEMPERATURE IN CELSIUS
  WCI - WIND CHILL INDEX
   HX - HEAT INDEX
  VSB - VISIBILITY
$$





USA.gov is the U.S. government's official web portal to all federal, state and local government web resources and services.